• In Netherlands
  • List of Countries
  • For 7 days
  • Water Temperature
  • Satellite Maps
  • Weather Map
  • Weather Widgets
  • user-avatar
    Login

    Hourly Weather Annaba

    Today, 18 January, Wednesday

    Time Temperature Precipitation Wind Pressure Humidity
    00:00 +3°C° 0.7 mm 6 mps 754 mmHg 87%
    01:00 +3°C° 0.7 mm 6 mps 754 mmHg 86%
    02:00 +3°C° 0.7 mm 7 mps 754 mmHg 86%
    03:00 +3°C° 0.7 mm 7 mps 754 mmHg 86%
    04:00 +3°C° 0.7 mm 7 mps 755 mmHg 86%
    05:00 +2°C° 0.6 mm 7 mps 755 mmHg 86%
    06:00 +2°C° 0.6 mm 7 mps 755 mmHg 86%
    07:00 +2°C° 0.6 mm 6 mps 756 mmHg 86%
    08:00 +3°C° 0.4 mm 6 mps 756 mmHg 84%
    09:00 +5°C° 0.4 mm 6 mps 757 mmHg 82%
    10:00 +7°C° 0.4 mm 6 mps 757 mmHg 79%
    11:00 +8°C° 0.3 mm 6 mps 757 mmHg 77%
    12:00 +9°C° 0.3 mm 6 mps 757 mmHg 75%
    13:00 +10°C° 0.3 mm 6 mps 757 mmHg 73%
    14:00 +10°C° 0.3 mm 6 mps 757 mmHg 74%
    15:00 +10°C° 0.3 mm 6 mps 757 mmHg 75%
    16:00 +10°C° 0.3 mm 6 mps 757 mmHg 75%
    17:00 +8°C° 0.2 mm 6 mps 758 mmHg 80%
    18:00 +7°C° 0.2 mm 6 mps 758 mmHg 85%
    19:00 +5°C° 0.2 mm 5 mps 759 mmHg 89%
    20:00 +5°C° 0.1 mm 5 mps 759 mmHg 89%
    21:00 +5°C° 0.1 mm 5 mps 760 mmHg 89%
    22:00 +5°C° 0.1 mm 5 mps 760 mmHg 88%
    23:00 +5°C° 0 mm 5 mps 760 mmHg 87%

    Tomorrow, 19 January, Thursday

    Time Temperature Precipitation Wind Pressure Humidity
    00:00 +3°C° 0 mm 5 mps 761 mmHg 86%
    01:00 +3°C° 0 mm 5 mps 761 mmHg 84%
    02:00 +3°C° 0.1 mm 5 mps 761 mmHg 83%
    03:00 +4°C° 0.1 mm 4 mps 761 mmHg 82%
    04:00 +4°C° 0.1 mm 4 mps 761 mmHg 81%
    05:00 +4°C° 0.1 mm 4 mps 761 mmHg 80%
    06:00 +3°C° 0.1 mm 4 mps 761 mmHg 79%
    07:00 +3°C° 0.1 mm 4 mps 762 mmHg 79%
    08:00 +5°C° 0 mm 3 mps 762 mmHg 74%
    09:00 +8°C° 0 mm 3 mps 762 mmHg 69%
    10:00 +9°C° 0 mm 3 mps 762 mmHg 65%
    11:00 +10°C° 0 mm 2 mps 762 mmHg 61%
    12:00 +13°C° 0 mm 2 mps 762 mmHg 57%
    13:00 +14°C° 0 mm 1 mps 762 mmHg 54%
    14:00 +14°C° 0 mm 1 mps 761 mmHg 54%
    15:00 +14°C° 0 mm 1 mps 761 mmHg 54%
    16:00 +14°C° 0 mm 1 mps 761 mmHg 54%
    17:00 +12°C° 0 mm 2 mps 761 mmHg 64%
    18:00 +9°C° 0 mm 2 mps 762 mmHg 73%
    19:00 +6°C° 0 mm 2 mps 762 mmHg 82%
    20:00 +5°C° 0 mm 3 mps 762 mmHg 82%
    21:00 +5°C° 0 mm 3 mps 762 mmHg 83%
    22:00 +5°C° 0 mm 3 mps 763 mmHg 83%
    23:00 +5°C° 0 mm 3 mps 762 mmHg 82%

    Day after tomorrow, 20 January, Friday

    Time Temperature Precipitation Wind Pressure Humidity
    00:00 +4°C° 0 mm 3 mps 762 mmHg 81%
    01:00 +4°C° 0 mm 3 mps 762 mmHg 80%
    02:00 +4°C° 0 mm 3 mps 762 mmHg 77%
    03:00 +4°C° 0 mm 3 mps 762 mmHg 74%
    04:00 +5°C° 0 mm 3 mps 762 mmHg 71%
    05:00 +4°C° 0 mm 3 mps 762 mmHg 68%
    06:00 +4°C° 0 mm 3 mps 762 mmHg 65%
    07:00 +4°C° 0 mm 3 mps 762 mmHg 62%
    08:00 +7°C° 0 mm 3 mps 762 mmHg 59%
    09:00 +8°C° 0 mm 3 mps 762 mmHg 57%
    10:00 +10°C° 0 mm 4 mps 762 mmHg 54%
    11:00 +11°C° 0 mm 4 mps 761 mmHg 54%
    12:00 +12°C° 0 mm 4 mps 761 mmHg 54%
    13:00 +14°C° 0 mm 4 mps 760 mmHg 53%
    14:00 +14°C° 0 mm 4 mps 760 mmHg 58%
    15:00 +14°C° 0 mm 5 mps 759 mmHg 63%
    16:00 +14°C° 0 mm 5 mps 759 mmHg 67%
    17:00 +12°C° 1.1 mm 5 mps 759 mmHg 75%
    18:00 +10°C° 1.1 mm 6 mps 759 mmHg 82%
    19:00 +8°C° 1.1 mm 6 mps 758 mmHg 90%
    20:00 +8°C° 1.1 mm 6 mps 758 mmHg 91%
    21:00 +8°C° 1.1 mm 6 mps 758 mmHg 91%
    22:00 +8°C° 1.1 mm 7 mps 757 mmHg 92%
    23:00 +7°C° 1 mm 6 mps 757 mmHg 93%

    21 January, Saturday

    Time Temperature Precipitation Wind Pressure Humidity
    00:00 +7°C° 1 mm 6 mps 756 mmHg 93%
    01:00 +7°C° 1 mm 5 mps 755 mmHg 94%
    02:00 +7°C° 0.2 mm 4 mps 755 mmHg 94%
    03:00 +6°C° 0.2 mm 4 mps 754 mmHg 94%
    04:00 +7°C° 0.2 mm 3 mps 753 mmHg 94%
    05:00 +7°C° 0 mm 3 mps 753 mmHg 93%
    06:00 +7°C° 0 mm 3 mps 753 mmHg 92%
    07:00 +7°C° 0 mm 3 mps 752 mmHg 91%
    08:00 +8°C° 0 mm 2 mps 752 mmHg 86%
    09:00 +9°C° 0 mm 2 mps 752 mmHg 81%
    10:00 +10°C° 0 mm 2 mps 752 mmHg 76%
    11:00 +12°C° 0 mm 2 mps 752 mmHg 71%
    12:00 +13°C° 0 mm 2 mps 752 mmHg 65%
    13:00 +14°C° 0 mm 1 mps 752 mmHg 60%
    14:00 +14°C° 0.3 mm 1 mps 751 mmHg 61%
    15:00 +14°C° 0.3 mm 1 mps 751 mmHg 63%
    16:00 +14°C° 0.3 mm 1 mps 751 mmHg 65%
    17:00 +12°C° 0.3 mm 1 mps 751 mmHg 71%
    18:00 +11°C° 0.3 mm 1 mps 752 mmHg 77%
    19:00 +10°C° 0.3 mm 1 mps 752 mmHg 83%
    20:00 +9°C° 0.2 mm 1 mps 752 mmHg 83%
    21:00 +8°C° 0.2 mm 2 mps 753 mmHg 84%
    22:00 +8°C° 0.2 mm 2 mps 753 mmHg 84%
    23:00 +7°C° 0 mm 2 mps 753 mmHg 85%

    22 January, Sunday

    Time Temperature Precipitation Wind Pressure Humidity
    00:00 +7°C° 0 mm 3 mps 753 mmHg 85%
    01:00 +7°C° 0 mm 3 mps 753 mmHg 86%
    02:00 +5°C° 0.2 mm 3 mps 753 mmHg 86%
    03:00 +5°C° 0.2 mm 3 mps 753 mmHg 86%
    04:00 +5°C° 0.2 mm 3 mps 753 mmHg 86%
    05:00 +5°C° 0.1 mm 3 mps 754 mmHg 86%
    06:00 +5°C° 0.1 mm 3 mps 754 mmHg 85%
    07:00 +5°C° 0.1 mm 3 mps 754 mmHg 85%
    08:00 +7°C° 0 mm 3 mps 755 mmHg 81%
    09:00 +9°C° 0 mm 3 mps 755 mmHg 77%
    10:00 +11°C° 0 mm 3 mps 755 mmHg 73%
    11:00 +12°C° 0 mm 3 mps 755 mmHg 69%
    12:00 +14°C° 0 mm 2 mps 755 mmHg 64%
    13:00 +15°C° 0 mm 2 mps 755 mmHg 59%
    14:00 +15°C° 0.1 mm 2 mps 755 mmHg 61%
    15:00 +15°C° 0.1 mm 2 mps 755 mmHg 62%
    16:00 +15°C° 0.1 mm 2 mps 755 mmHg 63%
    17:00 +13°C° 0.2 mm 2 mps 755 mmHg 70%
    18:00 +10°C° 0.2 mm 2 mps 756 mmHg 78%
    19:00 +8°C° 0.2 mm 2 mps 756 mmHg 85%
    20:00 +8°C° 0.2 mm 2 mps 757 mmHg 85%
    21:00 +9°C° 0.2 mm 3 mps 757 mmHg 85%
    22:00 +9°C° 0.2 mm 3 mps 758 mmHg 85%
    23:00 +8°C° 0.1 mm 4 mps 758 mmHg 85%

    23 January, Monday

    Time Temperature Precipitation Wind Pressure Humidity
    00:00 +8°C° 0.1 mm 4 mps 758 mmHg 86%
    01:00 +8°C° 0.1 mm 5 mps 758 mmHg 86%
    02:00 +7°C° 0.1 mm 5 mps 758 mmHg 86%
    03:00 +7°C° 0.1 mm 5 mps 758 mmHg 86%
    04:00 +7°C° 0.1 mm 5 mps 758 mmHg 86%
    05:00 +7°C° 0.1 mm 5 mps 759 mmHg 85%
    06:00 +7°C° 0.1 mm 5 mps 759 mmHg 84%
    07:00 +6°C° 0.1 mm 5 mps 759 mmHg 84%
    08:00 +8°C° 0 mm 6 mps 760 mmHg 80%
    09:00 +9°C° 0 mm 6 mps 760 mmHg 77%
    10:00 +11°C° 0 mm 7 mps 760 mmHg 73%
    11:00 +11°C° 0.1 mm 8 mps 760 mmHg 71%
    12:00 +12°C° 0.1 mm 9 mps 760 mmHg 69%
    13:00 +13°C° 0.1 mm 9 mps 760 mmHg 67%
    14:00 +13°C° 0.1 mm 9 mps 760 mmHg 67%
    15:00 +13°C° 0.1 mm 9 mps 760 mmHg 67%
    16:00 +13°C° 0.1 mm 9 mps 760 mmHg 68%
    17:00 +11°C° 0.1 mm 8 mps 760 mmHg 74%
    18:00 +9°C° 0.1 mm 8 mps 761 mmHg 80%
    19:00 +6°C° 0.1 mm 7 mps 761 mmHg 86%
    20:00 +7°C° 0.1 mm 6 mps 762 mmHg 85%
    21:00 +7°C° 0.1 mm 6 mps 762 mmHg 84%
    22:00 +7°C° 0.1 mm 6 mps 762 mmHg 83%
    23:00 +7°C° 0.1 mm 6 mps 762 mmHg 83%
    Show more